This is the latest recevied weather packets stored in our database for station/object MeshWX-1. If no packets are shown the sender has not sent any weather packets the latest 10 day(s).
| Time | Temp. | Humidity | Pressure | Rain* | Wind** | Luminosity | Snow |
|---|---|---|---|---|---|---|---|
| 1788371189 | 28.33° C | 20% | 998 hPa | - | - | - | - |
| 1788371069 | 28.33° C | 20% | 998 hPa | - | - | - | - |
| 1788369238 | 28.33° C | 20% | 998 hPa | - | - | - | - |
| 1788369148 | 30.56° C | 17% | 997.7 hPa | - | - | - | - |
| 1788369028 | 30.56° C | 17% | 997.7 hPa | - | - | - | - |
| 1788367197 | 30.56° C | 17% | 997.7 hPa | - | - | - | - |
| 1788367186 | 30.56° C | 17% | 997.7 hPa | - | - | - | - |
| 1788367048 | 35° C | 14% | 997.8 hPa | - | - | - | - |
| 1788366988 | 35° C | 14% | 997.8 hPa | - | - | - | - |
| 1788365152 | 35° C | 14% | 997.8 hPa | - | - | - | - |
| 1788365008 | 37.78° C | 14% | 998 hPa | - | - | - | - |
| 1788364948 | 37.78° C | 14% | 998 hPa | - | - | - | - |
| 1788363127 | 37.78° C | 14% | 998 hPa | - | - | - | - |
| 1788363086 | 37.78° C | 14% | 998 hPa | - | - | - | - |
| 1788362908 | 37.78° C | 14% | 998.1 hPa | - | - | - | - |
| 1788362847 | 37.78° C | 14% | 998.1 hPa | - | - | - | - |
| 1788361085 | 37.78° C | 14% | 998.1 hPa | - | - | - | - |
| 1788360867 | 37.78° C | 14% | 998.3 hPa | - | - | - | - |
| 1788360808 | 37.78° C | 14% | 998.3 hPa | - | - | - | - |
| 1788359163 | 37.78° C | 14% | 998.3 hPa | - | - | - | - |
| 1788359104 | 37.78° C | 14% | 998.3 hPa | - | - | - | - |
| 1788358827 | 38.89° C | 14% | 998.6 hPa | - | - | - | - |
| 1788357124 | 38.89° C | 14% | 998.6 hPa | - | - | - | - |
| 1788356847 | 38.33° C | 17% | 998.9 hPa | - | - | - | - |
| 1788355236 | 38.33° C | 17% | 998.9 hPa | - | - | - | - |
* Rain since midnight (hover to see other rain measurements)
** Current wind speed in m/s (hover to see current wind gust speed)